Redmond, OR

4:58 PM PST on January 21, 2017 (GMT -0800)
Roberts Field Airport

Weather History for KRDM - May, 2014

Change the Weather History Date:

Sunday, May 4, 2014

  Actual Average Record
Temperature  
Mean Temperature 48 °F 48 °F  
Max Temperature 57 °F 64 °F 91 °F (1966)
Min Temperature 38 °F 33 °F 16 °F (1962)
Degree Days  
Heating Degree Days 17 17  
Month to date heating degree days 39 69  
Since 1 July heating degree days 6134 6140  
Cooling Degree Days 0 0  
Month to date cooling degree days 0 0  
Year to date cooling degree days 0 0  
Moisture  
Dew Point 36 °F    
Average Humidity 68    
Maximum Humidity 85    
Minimum Humidity 50    
Precipitation  
Precipitation 0.09 in 0.03 in 0.63 in (1995)
Month to date precipitation 0.09 0.11  
Year to date precipitation 3.18 3.12  
Sea Level Pressure  
Sea Level Pressure 29.84 in    
Wind  
Wind Speed 9 mph (WSW)    
Max Wind Speed 22 mph    
Max Gust Speed 28 mph    
Visibility 10 miles    
Events Rain    
T = Trace of Precipitation, MM = Missing Value Source: NWS Daily Summary

Daily Weather History Graph

Daily Weather History Graph

Search for Another Location

Airport or City:

Trip Planner

Search our weather history database for the weather conditions in past years. The results will help you decide how hot, cold, wet, or windy it might be!

Date:

Astronomy

May. 04, 2014 Rise Set
Actual Time 5:51 AM PDT 8:12 PM PDT
Civil Twilight 5:19 AM PDT 8:44 PM PDT
Nautical Twilight 4:39 AM PDT 9:24 PM PDT
Astronomical Twilight 3:54 AM PDT 10:09 PM PDT
Moon 10:19 AM PDT (5/4) 12:21 AM PDT (5/4)
Length of Visible Light 15h 25m
Length of Day
14h 20m
Waxing Crescent, 28% of the Moon is Illuminated
May 4
Waxing Crescent
May 6
First Quarter
May 14
Full
May 21
Last Quarter
May 28
New

Hourly Weather History & Observations

Time (PDT) Temp. Windchill Dew Point Humidity Pressure Visibility Wind Dir Wind Speed Gust Speed Precip Events Conditions
12:56 AM 48.9 °F - 33.1 °F 54% 29.80 in 10.0 mi SSW 11.5 mph - N/A   Clear
1:56 AM 48.0 °F - 32.0 °F 54% 29.80 in 10.0 mi SSW 11.5 mph - N/A   Clear
2:56 AM 48.0 °F - 33.1 °F 56% 29.78 in 10.0 mi SSW 12.7 mph - N/A   Clear
3:56 AM 46.9 °F - 33.1 °F 59% 29.80 in 10.0 mi SSW 8.1 mph - N/A   Overcast
4:56 AM 46.0 °F 40.2 °F 33.1 °F 61% 29.80 in 10.0 mi South 12.7 mph 16.1 mph N/A   Mostly Cloudy
5:56 AM 45.0 °F 38.9 °F 33.1 °F 63% 29.80 in 10.0 mi South 12.7 mph - N/A   Scattered Clouds
6:56 AM 46.9 °F - 34.0 °F 61% 29.80 in 10.0 mi South 15.0 mph 21.9 mph N/A   Mostly Cloudy
7:56 AM 50.0 °F - 35.1 °F 57% 29.81 in 10.0 mi SSW 12.7 mph - N/A   Mostly Cloudy
8:56 AM 53.1 °F - 35.1 °F 50% 29.82 in 10.0 mi South 18.4 mph - N/A   Mostly Cloudy
9:56 AM 52.0 °F - 37.0 °F 57% 29.83 in 10.0 mi West 5.8 mph - 0.00 in Rain Light Rain
10:56 AM 52.0 °F - 37.9 °F 59% 29.84 in 10.0 mi NNW 8.1 mph - 0.00 in   Scattered Clouds
11:37 AM 51.1 °F - 39.0 °F 63% 29.85 in 8.0 mi Variable 3.5 mph - 0.00 in Rain Light Rain
11:56 AM 52.0 °F - 39.0 °F 61% 29.85 in 10.0 mi Variable 6.9 mph - 0.00 in   Mostly Cloudy
12:56 PM 55.9 °F - 37.9 °F 51% 29.81 in 10.0 mi Calm Calm - 0.00 in   Scattered Clouds
1:30 PM 48.9 °F - 42.1 °F 77% 29.85 in 2.0 mi NNW 10.4 mph - 0.08 in Rain Rain
1:37 PM 51.1 °F - 44.1 °F 77% 29.85 in 6.0 mi NW 15.0 mph - 0.08 in Rain Light Rain
1:56 PM 48.0 °F - 42.1 °F 80% 29.85 in 10.0 mi WNW 11.5 mph 23.0 mph 0.09 in Rain Light Rain
2:56 PM 53.1 °F - 41.0 °F 64% 29.83 in 10.0 mi NW 8.1 mph - 0.00 in   Mostly Cloudy
3:56 PM 54.0 °F - 39.9 °F 59% 29.82 in 10.0 mi SE 5.8 mph - 0.00 in   Mostly Cloudy
4:56 PM 55.9 °F - 37.9 °F 51% 29.83 in 10.0 mi West 11.5 mph - N/A   Mostly Cloudy
5:56 PM 53.1 °F - 35.1 °F 50% 29.84 in 10.0 mi NW 4.6 mph - N/A   Mostly Cloudy
6:56 PM 52.0 °F - 34.0 °F 50% 29.85 in 10.0 mi WNW 15.0 mph - 0.00 in   Overcast
7:56 PM 48.0 °F - 35.1 °F 61% 29.88 in 10.0 mi West 12.7 mph - N/A   Overcast
8:56 PM 46.0 °F 43.1 °F 35.1 °F 66% 29.89 in 10.0 mi WNW 5.8 mph - N/A   Scattered Clouds
9:56 PM 44.1 °F 42.5 °F 35.1 °F 71% 29.92 in 10.0 mi NNE 3.5 mph - N/A   Overcast
10:56 PM 42.1 °F 40.2 °F 35.1 °F 76% 29.93 in 10.0 mi SE 3.5 mph - N/A   Mostly Cloudy
11:56 PM 39.9 °F 37.8 °F 35.1 °F 83% 29.93 in 10.0 mi ESE 3.5 mph - N/A   Overcast